Fort Stockton, TX

8:56 AM CDT on October 01, 2016 (GMT -0500)
Fort Stockton-Pecos County

Weather History for KFST - March, 2014

Change the Weather History Date:

Sunday, March 2, 2014

  Actual Average Record
Temperature  
Mean Temperature 46 °F -  
Max Temperature 64 °F 66 °F 88 °F (2016)
Min Temperature 26 °F 41 °F 21 °F (2002)
Degree Days  
Heating Degree Days 19    
Moisture  
Dew Point 31 °F    
Average Humidity 70    
Maximum Humidity 92    
Minimum Humidity 23    
Precipitation  
Precipitation 0.00 in - - ()
Sea Level Pressure  
Sea Level Pressure 30.02 in    
Wind  
Wind Speed 10 mph (NNE)    
Max Wind Speed 16 mph    
Max Gust Speed -    
Visibility 8 miles    
Events      
Averages and records for this station are not official NWS values.
T = Trace of Precipitation, MM = Missing Value Source: NWS Daily Summary

Daily Weather History Graph

Daily Weather History Graph

Search for Another Location

Airport or City:

Trip Planner

Search our weather history database for the weather conditions in past years. The results will help you decide how hot, cold, wet, or windy it might be!

Date:

Astronomy

Mar. 02, 2014 Rise Set
Actual Time 7:16 AM CST 6:50 PM CST
Civil Twilight 6:52 AM CST 7:15 PM CST
Nautical Twilight 6:24 AM CST 7:43 PM CST
Astronomical Twilight 5:56 AM CST 8:11 PM CST
Moon 7:58 AM CST (3/2) 8:38 PM CST (3/2)
Length of Visible Light 12h 22m
Length of Day
11h 33m
Waxing Crescent, 3% of the Moon is Illuminated
Mar 2
Waxing Crescent
Mar 8
First Quarter
Mar 16
Full
Mar 23
Last Quarter
Mar 30
New

Hourly Weather History & Observations

Time (CST) Temp. Windchill Dew Point Humidity Pressure Visibility Wind Dir Wind Speed Gust Speed Precip Events Conditions
12:53 AM 64.9 °F - 37.0 °F 36% 29.75 in 10.0 mi South 10.4 mph - N/A   Clear
1:53 AM 64.9 °F - 42.1 °F 43% 29.75 in 10.0 mi WNW 10.4 mph - N/A   Clear
2:53 AM 61.0 °F - 23.0 °F 23% 29.75 in 10.0 mi WSW 11.5 mph - N/A   Clear
3:53 AM 57.0 °F - 28.0 °F 33% 29.77 in 10.0 mi WSW 12.7 mph - N/A   Clear
4:53 AM 54.0 °F - 28.0 °F 37% 29.80 in 10.0 mi WNW 10.4 mph - N/A   Clear
5:44 AM 44.1 °F 38.1 °F 36.0 °F 73% 29.95 in 10.0 mi North 11.5 mph - N/A   Clear
5:53 AM 43.0 °F 36.0 °F 35.1 °F 74% 29.86 in 9.0 mi North 13.8 mph - N/A   Clear
6:53 AM 39.9 °F 33.4 °F 35.1 °F 83% 29.91 in 8.0 mi North 10.4 mph - N/A   Clear
7:09 AM 39.9 °F 34.5 °F 35.1 °F 83% 29.99 in 9.0 mi North 8.1 mph - N/A   Mostly Cloudy
7:53 AM 37.9 °F 31.5 °F 34.0 °F 86% 29.93 in 6.0 mi ENE 9.2 mph - N/A   Overcast
8:08 AM 37.9 °F 31.5 °F 33.1 °F 83% 30.03 in 6.0 mi NNE 9.2 mph - N/A   Haze
8:33 AM 37.0 °F 30.4 °F 32.0 °F 82% 30.05 in 6.0 mi NNE 9.2 mph - N/A   Haze
8:53 AM 37.0 °F 30.4 °F 32.0 °F 82% 29.99 in 6.0 mi NNE 9.2 mph - N/A   Haze
9:53 AM 36.0 °F 30.3 °F 32.0 °F 86% 30.01 in 6.0 mi NNE 6.9 mph - N/A   Overcast
10:24 AM 35.1 °F 28.6 °F 30.9 °F 85% 30.11 in 6.0 mi North 8.1 mph - N/A   Overcast
10:53 AM 36.0 °F 26.7 °F 30.9 °F 82% 30.07 in 7.0 mi North 15.0 mph - N/A   Overcast
11:32 AM 33.1 °F 22.6 °F 30.9 °F 92% 30.18 in 2.5 mi NNW 16.1 mph - N/A   Overcast
11:53 AM 33.1 °F 23.0 °F 30.9 °F 92% 30.13 in 3.0 mi North 15.0 mph - N/A   Overcast
12:09 PM 34.0 °F 24.2 °F 30.9 °F 89% 30.19 in 7.0 mi North 15.0 mph - N/A   Overcast
12:53 PM 34.0 °F 28.0 °F 30.9 °F 89% 30.10 in 8.0 mi North 6.9 mph - N/A   Overcast
1:00 PM 35.1 °F 30.1 °F 30.9 °F 85% 30.16 in 9.0 mi Variable 5.8 mph - N/A   Overcast
1:18 PM 36.0 °F 31.1 °F 30.9 °F 82% 30.14 in 9.0 mi NE 5.8 mph - N/A   Overcast
1:53 PM 37.0 °F 34.5 °F 30.9 °F 79% 30.06 in 10.0 mi NNE 3.5 mph - N/A   Overcast
2:26 PM 39.0 °F - 32.0 °F 76% 30.09 in 10.0 mi Calm Calm - N/A   Overcast
2:53 PM 42.1 °F 40.2 °F 32.0 °F 67% 29.99 in 10.0 mi SSE 3.5 mph - N/A   Mostly Cloudy
3:53 PM 48.0 °F - 33.1 °F 56% 29.97 in 10.0 mi Calm Calm - N/A   Clear
4:53 PM 50.0 °F - 34.0 °F 54% 29.95 in 10.0 mi ESE 4.6 mph - N/A   Clear
5:53 PM 52.0 °F - 34.0 °F 50% 29.97 in 10.0 mi East 5.8 mph - N/A   Clear
6:53 PM 48.0 °F - 33.1 °F 56% 30.02 in 10.0 mi NE 8.1 mph - N/A   Clear
7:53 PM 44.1 °F 39.5 °F 30.9 °F 60% 30.07 in 10.0 mi East 8.1 mph - N/A   Clear
8:53 PM 37.0 °F 28.1 °F 27.0 °F 67% 30.15 in 10.0 mi ENE 15.0 mph - N/A   Clear
9:53 PM 33.1 °F 23.9 °F 26.1 °F 75% 30.19 in 10.0 mi NE 12.7 mph - N/A   Clear
10:53 PM 28.0 °F 17.5 °F 19.9 °F 72% 30.24 in 10.0 mi NE 12.7 mph - N/A   Clear
11:53 PM 26.1 °F 13.6 °F 19.0 °F 75% 30.30 in 10.0 mi NNE 16.1 mph - N/A   Scattered Clouds